EN

Hourly Weather Bralecin

Today, 20 April, Tuesday

Time Temperature Precipitation Wind Pressure Humidity
00:00 +8°C° 0 mm 3 mps 758 mmHg 73%
01:00 +7°C° 0 mm 2 mps 758 mmHg 75%
02:00 +7°C° 0 mm 2 mps 758 mmHg 75%
03:00 +6°C° 0 mm 2 mps 758 mmHg 75%
04:00 +6°C° 0 mm 2 mps 758 mmHg 75%
05:00 +7°C° 0 mm 2 mps 758 mmHg 72%
06:00 +8°C° 0 mm 2 mps 758 mmHg 69%
07:00 +10°C° 0 mm 1 mps 758 mmHg 66%
08:00 +11°C° 0 mm 1 mps 758 mmHg 60%
09:00 +13°C° 0 mm 1 mps 758 mmHg 55%
10:00 +15°C° 0 mm 1 mps 758 mmHg 50%
11:00 +16°C° 0 mm 2 mps 757 mmHg 47%
12:00 +17°C° 0 mm 2 mps 757 mmHg 44%
13:00 +17°C° 0 mm 2 mps 757 mmHg 40%
14:00 +17°C° 0 mm 3 mps 756 mmHg 41%
15:00 +17°C° 0 mm 3 mps 756 mmHg 41%
16:00 +17°C° 0 mm 3 mps 756 mmHg 41%
17:00 +13°C° 0 mm 3 mps 756 mmHg 52%
18:00 +11°C° 0 mm 3 mps 756 mmHg 63%
19:00 +9°C° 0 mm 3 mps 756 mmHg 74%
20:00 +8°C° 0 mm 3 mps 756 mmHg 78%
21:00 +7°C° 0 mm 2 mps 756 mmHg 82%
22:00 +6°C° 0 mm 2 mps 756 mmHg 86%
23:00 +6°C° 0 mm 2 mps 756 mmHg 87%

Tomorrow, 21 April, Wednesday

Time Temperature Precipitation Wind Pressure Humidity
00:00 +5°C° 0 mm 2 mps 756 mmHg 88%
01:00 +5°C° 0 mm 2 mps 756 mmHg 88%
02:00 +5°C° 0 mm 2 mps 756 mmHg 89%
03:00 +4°C° 0 mm 2 mps 755 mmHg 90%
04:00 +4°C° 0 mm 2 mps 755 mmHg 90%
05:00 +5°C° 0 mm 2 mps 755 mmHg 85%
06:00 +6°C° 0 mm 2 mps 755 mmHg 80%
07:00 +7°C° 0 mm 2 mps 755 mmHg 75%
08:00 +9°C° 0 mm 2 mps 755 mmHg 68%
09:00 +11°C° 0 mm 3 mps 755 mmHg 60%
10:00 +13°C° 0 mm 3 mps 755 mmHg 53%
11:00 +14°C° 0 mm 4 mps 755 mmHg 50%
12:00 +14°C° 0 mm 4 mps 755 mmHg 48%
13:00 +15°C° 0 mm 5 mps 754 mmHg 45%
14:00 +14°C° 0.1 mm 5 mps 754 mmHg 51%
15:00 +13°C° 0.1 mm 5 mps 754 mmHg 57%
16:00 +13°C° 0.1 mm 6 mps 754 mmHg 62%
17:00 +10°C° 0.2 mm 5 mps 754 mmHg 69%
18:00 +8°C° 0.2 mm 4 mps 754 mmHg 76%
19:00 +5°C° 0.2 mm 4 mps 755 mmHg 83%
20:00 +5°C° 0 mm 4 mps 755 mmHg 83%
21:00 +4°C° 0 mm 4 mps 755 mmHg 83%
22:00 +3°C° 0 mm 4 mps 755 mmHg 83%
23:00 +2°C° 0 mm 5 mps 755 mmHg 83%

Day after tomorrow, 22 April, Thursday

Time Temperature Precipitation Wind Pressure Humidity
00:00 +1°C° 0 mm 5 mps 755 mmHg 83%
01:00 0°C° 0 mm 5 mps 755 mmHg 83%
02:00 -1°C° 0 mm 6 mps 755 mmHg 81%
03:00 -1°C° 0 mm 6 mps 755 mmHg 80%
04:00 -1°C° 0 mm 6 mps 755 mmHg 79%
05:00 +1°C° 0 mm 6 mps 755 mmHg 77%
06:00 0°C° 0 mm 7 mps 755 mmHg 76%
07:00 +2°C° 0 mm 7 mps 754 mmHg 75%
08:00 +2°C° 0.3 mm 7 mps 755 mmHg 81%
09:00 +2°C° 0.3 mm 6 mps 755 mmHg 87%
10:00 +2°C° 0.3 mm 6 mps 755 mmHg 93%
11:00 +3°C° 0.4 mm 6 mps 755 mmHg 82%
12:00 +4°C° 0.4 mm 6 mps 755 mmHg 71%
13:00 +7°C° 0.4 mm 6 mps 755 mmHg 60%
14:00 +7°C° 0.3 mm 6 mps 756 mmHg 60%
15:00 +7°C° 0.3 mm 6 mps 756 mmHg 60%
16:00 +7°C° 0.3 mm 5 mps 756 mmHg 60%
17:00 +6°C° 0.1 mm 5 mps 756 mmHg 63%
18:00 +4°C° 0.1 mm 4 mps 756 mmHg 66%
19:00 +3°C° 0.1 mm 4 mps 757 mmHg 69%
20:00 +3°C° 0 mm 4 mps 757 mmHg 70%
21:00 +2°C° 0 mm 5 mps 757 mmHg 70%
22:00 +2°C° 0 mm 5 mps 757 mmHg 70%
23:00 +2°C° 0 mm 5 mps 757 mmHg 71%

23 April, Friday

Time Temperature Precipitation Wind Pressure Humidity
00:00 +1°C° 0 mm 6 mps 757 mmHg 72%
01:00 +1°C° 0 mm 6 mps 758 mmHg 73%
02:00 +1°C° 0 mm 5 mps 758 mmHg 76%
03:00 +1°C° 0 mm 5 mps 758 mmHg 78%
04:00 0°C° 0 mm 5 mps 759 mmHg 81%
05:00 +1°C° 0 mm 5 mps 759 mmHg 79%
06:00 +2°C° 0 mm 5 mps 760 mmHg 77%
07:00 +2°C° 0 mm 5 mps 760 mmHg 75%
08:00 +4°C° 0.1 mm 6 mps 761 mmHg 66%
09:00 +5°C° 0.1 mm 6 mps 761 mmHg 57%
10:00 +8°C° 0.1 mm 7 mps 761 mmHg 47%
11:00 +8°C° 0 mm 6 mps 762 mmHg 42%
12:00 +9°C° 0 mm 6 mps 762 mmHg 36%
13:00 +9°C° 0 mm 5 mps 762 mmHg 30%
14:00 +9°C° 0 mm 5 mps 762 mmHg 32%
15:00 +10°C° 0 mm 4 mps 762 mmHg 33%
16:00 +11°C° 0 mm 4 mps 762 mmHg 34%
17:00 +9°C° 0 mm 3 mps 762 mmHg 43%
18:00 +8°C° 0 mm 2 mps 762 mmHg 52%
19:00 +7°C° 0 mm 2 mps 762 mmHg 60%
20:00 +6°C° 0 mm 2 mps 762 mmHg 66%
21:00 +5°C° 0 mm 2 mps 762 mmHg 72%
22:00 +5°C° 0 mm 2 mps 762 mmHg 77%
23:00 +3°C° 0 mm 3 mps 762 mmHg 81%

24 April, Saturday

Time Temperature Precipitation Wind Pressure Humidity
00:00 +3°C° 0 mm 3 mps 761 mmHg 84%
01:00 +3°C° 0 mm 3 mps 761 mmHg 88%
02:00 +2°C° 0 mm 3 mps 761 mmHg 91%
03:00 +2°C° 0 mm 3 mps 761 mmHg 93%
04:00 +1°C° 0 mm 3 mps 761 mmHg 96%
05:00 +1°C° 0 mm 4 mps 761 mmHg 93%
06:00 +3°C° 0 mm 4 mps 761 mmHg 90%
07:00 +2°C° 0 mm 5 mps 761 mmHg 88%
08:00 +3°C° 0 mm 5 mps 761 mmHg 82%
09:00 +5°C° 0 mm 5 mps 762 mmHg 77%
10:00 +6°C° 0 mm 5 mps 762 mmHg 72%
11:00 +6°C° 0.1 mm 5 mps 762 mmHg 72%
12:00 +6°C° 0.1 mm 5 mps 762 mmHg 72%
13:00 +6°C° 0.1 mm 5 mps 762 mmHg 72%
14:00 +7°C° 0.1 mm 5 mps 762 mmHg 67%
15:00 +7°C° 0.1 mm 5 mps 762 mmHg 62%
16:00 +7°C° 0.1 mm 5 mps 762 mmHg 57%
17:00 +6°C° 0 mm 4 mps 763 mmHg 58%
18:00 +4°C° 0 mm 3 mps 763 mmHg 59%
19:00 +3°C° 0 mm 3 mps 763 mmHg 60%
20:00 +3°C° 0 mm 2 mps 764 mmHg 61%
21:00 +2°C° 0 mm 2 mps 764 mmHg 63%
22:00 +1°C° 0 mm 2 mps 764 mmHg 65%
23:00 +1°C° 0 mm 2 mps 764 mmHg 69%

25 April, Sunday

Time Temperature Precipitation Wind Pressure Humidity
00:00 0°C° 0 mm 3 mps 764 mmHg 72%
01:00 -1°C° 0 mm 3 mps 764 mmHg 76%
02:00 -1°C° 0 mm 3 mps 765 mmHg 80%
03:00 -1°C° 0 mm 3 mps 765 mmHg 83%
04:00 -1°C° 0 mm 2 mps 765 mmHg 87%
05:00 0°C° 0 mm 3 mps 765 mmHg 80%
06:00 +2°C° 0 mm 3 mps 766 mmHg 74%
07:00 +4°C° 0 mm 3 mps 766 mmHg 67%
08:00 +5°C° 0 mm 4 mps 766 mmHg 57%
09:00 +7°C° 0 mm 4 mps 766 mmHg 47%
10:00 +8°C° 0 mm 5 mps 766 mmHg 38%
11:00 +8°C° 0 mm 5 mps 766 mmHg 36%
12:00 +9°C° 0 mm 5 mps 766 mmHg 35%
13:00 +9°C° 0 mm 5 mps 766 mmHg 34%
14:00 +9°C° 0 mm 5 mps 766 mmHg 35%
15:00 +9°C° 0 mm 5 mps 766 mmHg 36%
16:00 +8°C° 0 mm 5 mps 766 mmHg 37%
17:00 +7°C° 0 mm 4 mps 766 mmHg 44%
18:00 +5°C° 0 mm 3 mps 766 mmHg 52%
19:00 +6°C° 0 mm 1 mps 766 mmHg 59%
20:00 +5°C° 0 mm 1 mps 766 mmHg 59%
21:00 +4°C° 0 mm 1 mps 766 mmHg 60%
22:00 +2°C° 0 mm 0 mps 766 mmHg 61%
23:00 +3°C° 0 mm 1 mps 766 mmHg 61%
Show more

We Need Your Consent

Meteoprog and our Service Providers may store and access personal data such as cookies, device identifiers or other similar technologies on your device and process such data to personalise content and ads, as well as provide social media features and to analyse the traffic.

  • Store and/or access information on your device

    Cookies, device identifiers or other information can be stored or accessed on your device for the purposes indicated above.

  • Personalised ads and content, ad and content measurement, audience insights, and products development

    Ads and content can be personalised based on a profile. More data can be added to better personalise ads and content. Ad and content performance can be measured. Insights about the audience who saw the ads and content can be derived. Such data can be used to develop or improve user’s experience, systems and software.

By clicking ‘I Agree’ you will allow the use of indicated cookies, device identifiers, web beacons or other similar technologies. Your settings can be changed in the browser on your device.

For certain purposes, legitimate interests may be relied on, rather than consent. You can read more about this in our Privacy and Cookie Policy.